owner,sensor,date,latitude,longitude,vertical_datum,wind_speed,wind_to_direction,wind_speed_of_gust,qcFlag 
ADCP,ioos:station:wmo:42887:1,2013-09-01T00:00:00Z,28.1910,-88.4960,48.2,0.3,199.0,99.0,'11111222,11111222,11144222' 
ADCP,ioos:station:wmo:42887:1,2013-09-01T00:20:00Z,28.1910,-88.4960,48.2,0.2,275.0,99.0,'11111222,11111222,11144222' 
ADCP,ioos:station:wmo:42887:1,2013-09-01T00:40:00Z,28.1910,-88.4960,48.2,0.4,269.0,99.0,'11111222,11111222,11144222' 
ADCP,ioos:station:wmo:42887:1,2013-09-01T01:00:00Z,28.1910,-88.4960,48.2,1.3,258.0,99.0,'11111222,11111222,11144222' 
ADCP,ioos:station:wmo:42887:1,2013-09-01T01:20:00Z,28.1910,-88.4960,48.2,0.9,248.0,99.0,'11111222,11111222,11144222' 
ADCP,ioos:station:wmo:42887:1,2013-09-01T01:40:00Z,28.1910,-88.4960,48.2,1.1,257.0,99.0,'11111222,11111222,11144222' 
ADCP,ioos:station:wmo:42887:1,2013-09-01T02:00:00Z,28.1910,-88.4960,48.2,2.1,234.0,99.0,'11111222,11111222,11144222' 
ADCP,ioos:station:wmo:42887:1,2013-09-01T02:20:00Z,28.1910,-88.4960,48.2,0.7,241.0,99.0,'11111222,11111222,11144222' 
ADCP,ioos:station:wmo:42887:1,2013-09-01T02:40:00Z,28.1910,-88.4960,48.2,1.7,238.0,99.0,'11111222,11111222,11144222' 
ADCP,ioos:station:wmo:42887:1,2013-09-01T03:00:00Z,28.1910,-88.4960,48.2,1.6,243.0,99.0,'11111222,11111222,11144222' 
ADCP,ioos:station:wmo:42887:1,2013-09-01T03:20:00Z,28.1910,-88.4960,48.2,0.9,245.0,99.0,'11111222,11111222,11144222' 
ADCP,ioos:station:wmo:42887:1,2013-09-01T03:40:00Z,28.1910,-88.4960,48.2,2.0,239.0,99.0,'11111222,11111222,11144222' 
ADCP,ioos:station:wmo:42887:1,2013-09-01T04:00:00Z,28.1910,-88.4960,48.2,0.9,255.0,99.0,'11111222,11111222,11144222' 
ADCP,ioos:station:wmo:42887:1,2013-09-01T04:20:00Z,28.1910,-88.4960,48.2,1.7,235.0,99.0,'11111222,11111222,11144222' 
ADCP,ioos:station:wmo:42887:1,2013-09-01T04:40:00Z,28.1910,-88.4960,48.2,2.0,235.0,99.0,'11111222,11111222,11144222' 
ADCP,ioos:station:wmo:42887:1,2013-09-01T05:00:00Z,28.1910,-88.4960,48.2,1.5,247.0,99.0,'11111222,11111222,11144222' 
ADCP,ioos:station:wmo:42887:1,2013-09-01T05:20:00Z,28.1910,-88.4960,48.2,1.9,251.0,99.0,'11111222,11111222,11144222' 
ADCP,ioos:station:wmo:42887:1,2013-09-01T05:40:00Z,28.1910,-88.4960,48.2,2.9,253.0,99.0,'11111222,11111222,11144222' 
ADCP,ioos:station:wmo:42887:1,2013-09-01T06:00:00Z,28.1910,-88.4960,48.2,2.7,246.0,99.0,'11111222,11111222,11144222' 
ADCP,ioos:station:wmo:42887:1,2013-09-01T06:20:00Z,28.1910,-88.4960,48.2,2.7,252.0,99.0,'11111222,11111222,11144222' 
ADCP,ioos:station:wmo:42887:1,2013-09-01T06:40:00Z,28.1910,-88.4960,48.2,2.5,254.0,99.0,'11111222,11111222,11144222' 
ADCP,ioos:station:wmo:42887:1,2013-09-01T07:00:00Z,28.1910,-88.4960,48.2,1.4,254.0,99.0,'11111222,11111222,11144222' 
ADCP,ioos:station:wmo:42887:1,2013-09-01T07:20:00Z,28.1910,-88.4960,48.2,3.7,254.0,99.0,'11111222,11111222,11144222' 
ADCP,ioos:station:wmo:42887:1,2013-09-01T07:40:00Z,28.1910,-88.4960,48.2,3.8,250.0,99.0,'11111222,11111222,11144222' 
ADCP,ioos:station:wmo:42887:1,2013-09-01T08:00:00Z,28.1910,-88.4960,48.2,3.6,249.0,99.0,'11111222,11111222,11144222' 
ADCP,ioos:station:wmo:42887:1,2013-09-01T08:20:00Z,28.1910,-88.4960,48.2,3.9,257.0,99.0,'11111222,11111222,11144222' 
ADCP,ioos:station:wmo:42887:1,2013-09-01T08:40:00Z,28.1910,-88.4960,48.2,3.5,263.0,99.0,'11111222,11111222,11144222' 
ADCP,ioos:station:wmo:42887:1,2013-09-01T09:00:00Z,28.1910,-88.4960,48.2,2.8,258.0,99.0,'11111222,11111222,11144222' 
ADCP,ioos:station:wmo:42887:1,2013-09-01T09:20:00Z,28.1910,-88.4960,48.2,3.5,259.0,99.0,'11111222,11111222,11144222' 
ADCP,ioos:station:wmo:42887:1,2013-09-01T09:40:00Z,28.1910,-88.4960,48.2,3.8,262.0,99.0,'11111222,11111222,11144222' 
ADCP,ioos:station:wmo:42887:1,2013-09-01T10:00:00Z,28.1910,-88.4960,48.2,3.5,264.0,99.0,'11111222,11111222,11144222' 
ADCP,ioos:station:wmo:42887:1,2013-09-01T10:20:00Z,28.1910,-88.4960,48.2,2.5,259.0,99.0,'11111222,11111222,11144222' 
ADCP,ioos:station:wmo:42887:1,2013-09-01T10:40:00Z,28.1910,-88.4960,48.2,2.1,268.0,99.0,'11111222,11111222,11144222' 
ADCP,ioos:station:wmo:42887:1,2013-09-01T11:00:00Z,28.1910,-88.4960,48.2,3.3,264.0,99.0,'11111222,11111222,11144222' 
ADCP,ioos:station:wmo:42887:1,2013-09-01T11:20:00Z,28.1910,-88.4960,48.2,2.6,277.0,99.0,'11111222,11111222,11144222' 
ADCP,ioos:station:wmo:42887:1,2013-09-01T11:40:00Z,28.1910,-88.4960,48.2,2.1,272.0,99.0,'11111222,11111222,11144222' 
ADCP,ioos:station:wmo:42887:1,2013-09-01T12:00:00Z,28.1910,-88.4960,48.2,2.1,280.0,99.0,'11111222,11111222,11144222' 
ADCP,ioos:station:wmo:42887:1,2013-09-01T12:20:00Z,28.1910,-88.4960,48.2,2.1,296.0,99.0,'11111222,11111222,11144222' 
ADCP,ioos:station:wmo:42887:1,2013-09-01T12:40:00Z,28.1910,-88.4960,48.2,1.2,281.0,99.0,'11111222,11111222,11144222' 
ADCP,ioos:station:wmo:42887:1,2013-09-01T13:00:00Z,28.1910,-88.4960,48.2,1.4,272.0,99.0,'11111222,11111222,11144222' 
ADCP,ioos:station:wmo:42887:1,2013-09-01T13:20:00Z,28.1910,-88.4960,48.2,1.3,280.0,99.0,'11111222,11111222,11144222' 
ADCP,ioos:station:wmo:42887:1,2013-09-01T13:40:00Z,28.1910,-88.4960,48.2,1.8,303.0,99.0,'11111222,11111222,11144222' 
ADCP,ioos:station:wmo:42887:1,2013-09-01T14:00:00Z,28.1910,-88.4960,48.2,1.2,263.0,99.0,'11111222,11111222,11144222' 
ADCP,ioos:station:wmo:42887:1,2013-09-01T14:20:00Z,28.1910,-88.4960,48.2,0.8,286.0,99.0,'11111222,11111222,11144222' 
ADCP,ioos:station:wmo:42887:1,2013-09-01T14:40:00Z,28.1910,-88.4960,48.2,0.8,322.0,99.0,'11111222,11111222,11144222' 
ADCP,ioos:station:wmo:42887:1,2013-09-01T15:00:00Z,28.1910,-88.4960,48.2,0.6,272.0,99.0,'11111222,11111222,11144222' 
ADCP,ioos:station:wmo:42887:1,2013-09-01T15:20:00Z,28.1910,-88.4960,48.2,0.9,290.0,99.0,'11111222,11111222,11144222' 
ADCP,ioos:station:wmo:42887:1,2013-09-01T15:40:00Z,28.1910,-88.4960,48.2,0.8,292.0,99.0,'11111222,11111222,11144222' 
ADCP,ioos:station:wmo:42887:1,2013-09-01T16:00:00Z,28.1910,-88.4960,48.2,0.6,258.0,99.0,'11111222,11111222,11144222' 
ADCP,ioos:station:wmo:42887:1,2013-09-01T16:20:00Z,28.1910,-88.4960,48.2,0.9,304.0,99.0,'11111222,11111222,11144222' 
ADCP,ioos:station:wmo:42887:1,2013-09-01T16:40:00Z,28.1910,-88.4960,48.2,1.2,293.0,99.0,'11111222,11111222,11144222' 
ADCP,ioos:station:wmo:42887:1,2013-09-01T17:00:00Z,28.1910,-88.4960,48.2,1.0,252.0,99.0,'11111222,11111222,11144222' 
ADCP,ioos:station:wmo:42887:1,2013-09-01T17:20:00Z,28.1910,-88.4960,48.2,1.0,270.0,99.0,'11111222,11111222,11144222' 
ADCP,ioos:station:wmo:42887:1,2013-09-01T17:40:00Z,28.1910,-88.4960,48.2,0.3,244.0,99.0,'11111222,11111222,11144222' 
ADCP,ioos:station:wmo:42887:1,2013-09-01T18:00:00Z,28.1910,-88.4960,48.2,1.1,257.0,99.0,'11111222,11111222,11144222' 
ADCP,ioos:station:wmo:42887:1,2013-09-01T18:20:00Z,28.1910,-88.4960,48.2,0.8,275.0,99.0,'11111222,11111222,11144222' 
ADCP,ioos:station:wmo:42887:1,2013-09-01T18:40:00Z,28.1910,-88.4960,48.2,0.0,286.0,99.0,'11111222,11111222,11144222' 
ADCP,ioos:station:wmo:42887:1,2013-09-01T19:00:00Z,28.1910,-88.4960,48.2,0.7,292.0,99.0,'11111222,11111222,11144222' 
ADCP,ioos:station:wmo:42887:1,2013-09-01T19:20:00Z,28.1910,-88.4960,48.2,0.7,274.0,99.0,'11111222,11111222,11144222' 
ADCP,ioos:station:wmo:42887:1,2013-09-01T19:40:00Z,28.1910,-88.4960,48.2,0.5,224.0,99.0,'11111222,11111222,11144222' 
ADCP,ioos:station:wmo:42887:1,2013-09-01T20:00:00Z,28.1910,-88.4960,48.2,0.9,237.0,99.0,'11111222,11111222,11144222' 
ADCP,ioos:station:wmo:42887:1,2013-09-01T20:20:00Z,28.1910,-88.4960,48.2,0.4,236.0,99.0,'11111222,11111222,11144222' 
ADCP,ioos:station:wmo:42887:1,2013-09-01T20:40:00Z,28.1910,-88.4960,48.2,0.3,130.0,99.0,'11111222,11111222,11144222' 
ADCP,ioos:station:wmo:42887:1,2013-09-01T21:00:00Z,28.1910,-88.4960,48.2,0.2,107.0,99.0,'11111222,11111222,11144222' 
ADCP,ioos:station:wmo:42887:1,2013-09-01T21:20:00Z,28.1910,-88.4960,48.2,1.2,80.0,99.0,'11111222,11111222,11144222' 
ADCP,ioos:station:wmo:42887:1,2013-09-01T21:40:00Z,28.1910,-88.4960,48.2,0.9,69.0,99.0,'11111222,11111222,11144222' 
ADCP,ioos:station:wmo:42887:1,2013-09-01T22:00:00Z,28.1910,-88.4960,48.2,1.6,73.0,99.0,'11111222,11111222,11144222' 
ADCP,ioos:station:wmo:42887:1,2013-09-01T22:20:00Z,28.1910,-88.4960,48.2,1.3,77.0,99.0,'11111222,11111222,11144222' 
ADCP,ioos:station:wmo:42887:1,2013-09-01T22:40:00Z,28.1910,-88.4960,48.2,0.9,56.0,99.0,'11111222,11111222,11144222' 
ADCP,ioos:station:wmo:42887:1,2013-09-01T23:00:00Z,28.1910,-88.4960,48.2,0.5,68.0,99.0,'11111222,11111222,11144222' 
ADCP,ioos:station:wmo:42887:1,2013-09-01T23:20:00Z,28.1910,-88.4960,48.2,0.8,69.0,99.0,'11111222,11111222,11144222' 
ADCP,ioos:station:wmo:42887:1,2013-09-01T23:40:00Z,28.1910,-88.4960,48.2,0.7,71.0,99.0,'11111222,11111222,11144222' 
ADCP,ioos:station:wmo:42887:1,2013-09-02T00:00:00Z,28.1910,-88.4960,48.2,0.8,108.0,99.0,'11111222,11111222,11144222' 
ADCP,ioos:station:wmo:42887:1,2013-09-02T00:20:00Z,28.1910,-88.4960,48.2,1.2,72.0,99.0,'11111222,11111222,11144222' 
ADCP,ioos:station:wmo:42887:1,2013-09-02T00:40:00Z,28.1910,-88.4960,48.2,0.8,98.0,99.0,'11111222,11111222,11144222' 
ADCP,ioos:station:wmo:42887:1,2013-09-02T01:00:00Z,28.1910,-88.4960,48.2,0.3,131.0,99.0,'11111222,11111222,11144222' 
ADCP,ioos:station:wmo:42887:1,2013-09-02T01:20:00Z,28.1910,-88.4960,48.2,0.5,183.0,99.0,'11111222,11111222,11144222' 
ADCP,ioos:station:wmo:42887:1,2013-09-02T01:40:00Z,28.1910,-88.4960,48.2,1.5,172.0,99.0,'11111222,11111222,11144222' 
ADCP,ioos:station:wmo:42887:1,2013-09-02T02:00:00Z,28.1910,-88.4960,48.2,2.1,159.0,99.0,'11111222,11111222,11144222' 
ADCP,ioos:station:wmo:42887:1,2013-09-02T02:20:00Z,28.1910,-88.4960,48.2,1.5,167.0,99.0,'11111222,11111222,11144222' 
ADCP,ioos:station:wmo:42887:1,2013-09-02T02:40:00Z,28.1910,-88.4960,48.2,3.2,213.0,99.0,'11111222,11111222,11144222' 
ADCP,ioos:station:wmo:42887:1,2013-09-02T03:00:00Z,28.1910,-88.4960,48.2,3.6,217.0,99.0,'11111222,11111222,11144222' 
ADCP,ioos:station:wmo:42887:1,2013-09-02T03:20:00Z,28.1910,-88.4960,48.2,3.7,231.0,99.0,'11111222,11111222,11144222' 
ADCP,ioos:station:wmo:42887:1,2013-09-02T03:40:00Z,28.1910,-88.4960,48.2,4.0,215.0,99.0,'11111222,11111222,11144222' 
ADCP,ioos:station:wmo:42887:1,2013-09-02T04:00:00Z,28.1910,-88.4960,48.2,3.4,231.0,99.0,'11111222,11111222,11144222' 
ADCP,ioos:station:wmo:42887:1,2013-09-02T04:20:00Z,28.1910,-88.4960,48.2,3.8,227.0,99.0,'11111222,11111222,11144222' 
ADCP,ioos:station:wmo:42887:1,2013-09-02T04:40:00Z,28.1910,-88.4960,48.2,4.1,239.0,99.0,'11111222,11111222,11144222' 
ADCP,ioos:station:wmo:42887:1,2013-09-02T05:00:00Z,28.1910,-88.4960,48.2,2.8,225.0,99.0,'11111222,11111222,11144222' 
ADCP,ioos:station:wmo:42887:1,2013-09-02T05:20:00Z,28.1910,-88.4960,48.2,0.9,237.0,99.0,'11111222,11111222,11144222' 
ADCP,ioos:station:wmo:42887:1,2013-09-02T05:40:00Z,28.1910,-88.4960,48.2,3.3,249.0,99.0,'11111222,11111222,11144222' 
ADCP,ioos:station:wmo:42887:1,2013-09-02T06:00:00Z,28.1910,-88.4960,48.2,3.8,245.0,99.0,'11111222,11111222,11144222' 
ADCP,ioos:station:wmo:42887:1,2013-09-02T06:20:00Z,28.1910,-88.4960,48.2,2.7,250.0,99.0,'11111222,11111222,11144222' 
ADCP,ioos:station:wmo:42887:1,2013-09-02T06:40:00Z,28.1910,-88.4960,48.2,3.9,247.0,99.0,'11111222,11111222,11144222' 
ADCP,ioos:station:wmo:42887:1,2013-09-02T07:00:00Z,28.1910,-88.4960,48.2,3.6,247.0,99.0,'11111222,11111222,11144222' 
ADCP,ioos:station:wmo:42887:1,2013-09-02T07:20:00Z,28.1910,-88.4960,48.2,3.7,245.0,99.0,'11111222,11111222,11144222' 
ADCP,ioos:station:wmo:42887:1,2013-09-02T07:40:00Z,28.1910,-88.4960,48.2,3.3,255.0,99.0,'11111222,11111222,11144222' 
ADCP,ioos:station:wmo:42887:1,2013-09-02T08:00:00Z,28.1910,-88.4960,48.2,3.8,246.0,99.0,'11111222,11111222,11144222' 
ADCP,ioos:station:wmo:42887:1,2013-09-02T08:20:00Z,28.1910,-88.4960,48.2,2.7,272.0,99.0,'11111222,11111222,11144222' 
ADCP,ioos:station:wmo:42887:1,2013-09-02T08:40:00Z,28.1910,-88.4960,48.2,2.3,256.0,99.0,'11111222,11111222,11144222' 
ADCP,ioos:station:wmo:42887:1,2013-09-02T09:00:00Z,28.1910,-88.4960,48.2,2.7,249.0,99.0,'11111222,11111222,11144222' 
ADCP,ioos:station:wmo:42887:1,2013-09-02T09:20:00Z,28.1910,-88.4960,48.2,1.5,230.0,99.0,'11111222,11111222,11144222' 
ADCP,ioos:station:wmo:42887:1,2013-09-02T09:40:00Z,28.1910,-88.4960,48.2,1.0,237.0,99.0,'11111222,11111222,11144222' 
ADCP,ioos:station:wmo:42887:1,2013-09-02T10:00:00Z,28.1910,-88.4960,48.2,1.9,249.0,99.0,'11111222,11111222,11144222' 
ADCP,ioos:station:wmo:42887:1,2013-09-02T10:20:00Z,28.1910,-88.4960,48.2,2.4,250.0,99.0,'11111222,11111222,11144222' 
ADCP,ioos:station:wmo:42887:1,2013-09-02T10:40:00Z,28.1910,-88.4960,48.2,3.0,254.0,99.0,'11111222,11111222,11144222' 
ADCP,ioos:station:wmo:42887:1,2013-09-02T11:00:00Z,28.1910,-88.4960,48.2,3.1,254.0,99.0,'11111222,11111222,11144222' 
ADCP,ioos:station:wmo:42887:1,2013-09-02T11:20:00Z,28.1910,-88.4960,48.2,3.3,260.0,99.0,'11111222,11111222,11144222' 
ADCP,ioos:station:wmo:42887:1,2013-09-02T11:40:00Z,28.1910,-88.4960,48.2,2.4,261.0,99.0,'11111222,11111222,11144222' 
ADCP,ioos:station:wmo:42887:1,2013-09-02T12:00:00Z,28.1910,-88.4960,48.2,2.7,253.0,99.0,'11111222,11111222,11144222' 
ADCP,ioos:station:wmo:42887:1,2013-09-02T12:20:00Z,28.1910,-88.4960,48.2,3.3,264.0,99.0,'11111222,11111222,11144222' 
ADCP,ioos:station:wmo:42887:1,2013-09-02T12:40:00Z,28.1910,-88.4960,48.2,3.8,261.0,99.0,'11111222,11111222,11144222' 
ADCP,ioos:station:wmo:42887:1,2013-09-02T13:00:00Z,28.1910,-88.4960,48.2,3.5,263.0,99.0,'11111222,11111222,11144222' 
ADCP,ioos:station:wmo:42887:1,2013-09-02T13:20:00Z,28.1910,-88.4960,48.2,4.5,265.0,99.0,'11111222,11111222,11144222' 
ADCP,ioos:station:wmo:42887:1,2013-09-02T13:40:00Z,28.1910,-88.4960,48.2,6.3,260.0,99.0,'11111222,11111222,11144222' 
ADCP,ioos:station:wmo:42887:1,2013-09-02T14:00:00Z,28.1910,-88.4960,48.2,4.0,262.0,99.0,'11111222,11111222,11144222' 
ADCP,ioos:station:wmo:42887:1,2013-09-02T14:20:00Z,28.1910,-88.4960,48.2,3.2,275.0,99.0,'11111222,11111222,11144222' 
ADCP,ioos:station:wmo:42887:1,2013-09-02T14:40:00Z,28.1910,-88.4960,48.2,3.1,290.0,99.0,'11111222,11111222,11144222' 
ADCP,ioos:station:wmo:42887:1,2013-09-02T15:00:00Z,28.1910,-88.4960,48.2,2.7,277.0,99.0,'11111222,11111222,11144222' 
ADCP,ioos:station:wmo:42887:1,2013-09-02T15:20:00Z,28.1910,-88.4960,48.2,1.8,291.0,99.0,'11111222,11111222,11144222' 
ADCP,ioos:station:wmo:42887:1,2013-09-02T15:40:00Z,28.1910,-88.4960,48.2,1.2,286.0,99.0,'11111222,11111222,11144222' 
ADCP,ioos:station:wmo:42887:1,2013-09-02T16:00:00Z,28.1910,-88.4960,48.2,1.7,291.0,99.0,'11111222,11111222,11144222' 
ADCP,ioos:station:wmo:42887:1,2013-09-02T16:20:00Z,28.1910,-88.4960,48.2,1.9,313.0,99.0,'11111222,11111222,11144222' 
ADCP,ioos:station:wmo:42887:1,2013-09-02T16:40:00Z,28.1910,-88.4960,48.2,3.2,286.0,99.0,'11111222,11111222,11144222' 
ADCP,ioos:station:wmo:42887:1,2013-09-02T17:00:00Z,28.1910,-88.4960,48.2,3.2,318.0,99.0,'11111222,11111222,11144222' 
ADCP,ioos:station:wmo:42887:1,2013-09-02T17:20:00Z,28.1910,-88.4960,48.2,2.8,281.0,99.0,'11111222,11111222,11144222' 
ADCP,ioos:station:wmo:42887:1,2013-09-02T17:40:00Z,28.1910,-88.4960,48.2,2.1,285.0,99.0,'11111222,11111222,11144222' 
ADCP,ioos:station:wmo:42887:1,2013-09-02T18:00:00Z,28.1910,-88.4960,48.2,1.6,305.0,99.0,'11111222,11111222,11144222' 
ADCP,ioos:station:wmo:42887:1,2013-09-02T18:20:00Z,28.1910,-88.4960,48.2,1.2,313.0,99.0,'11111222,11111222,11144222' 
ADCP,ioos:station:wmo:42887:1,2013-09-02T18:40:00Z,28.1910,-88.4960,48.2,0.1,280.0,99.0,'11111222,11111222,11144222' 
ADCP,ioos:station:wmo:42887:1,2013-09-02T19:00:00Z,28.1910,-88.4960,48.2,0.2,342.0,99.0,'11111222,11111222,11144222' 
ADCP,ioos:station:wmo:42887:1,2013-09-02T19:20:00Z,28.1910,-88.4960,48.2,0.4,295.0,99.0,'11111222,11111222,11144222' 
ADCP,ioos:station:wmo:42887:1,2013-09-02T19:40:00Z,28.1910,-88.4960,48.2,0.7,278.0,99.0,'11111222,11111222,11144222' 
ADCP,ioos:station:wmo:42887:1,2013-09-02T20:00:00Z,28.1910,-88.4960,48.2,1.5,290.0,99.0,'11111222,11111222,11144222' 
ADCP,ioos:station:wmo:42887:1,2013-09-02T20:20:00Z,28.1910,-88.4960,48.2,3.2,298.0,99.0,'11111222,11111222,11144222' 
ADCP,ioos:station:wmo:42887:1,2013-09-02T20:40:00Z,28.1910,-88.4960,48.2,2.3,320.0,99.0,'11111222,11111222,11144222' 
ADCP,ioos:station:wmo:42887:1,2013-09-02T21:00:00Z,28.1910,-88.4960,48.2,1.1,316.0,99.0,'11111222,11111222,11144222' 
ADCP,ioos:station:wmo:42887:1,2013-09-02T21:20:00Z,28.1910,-88.4960,48.2,0.2,219.0,99.0,'11111222,11111222,11144222' 
ADCP,ioos:station:wmo:42887:1,2013-09-02T21:40:00Z,28.1910,-88.4960,48.2,0.0,39.0,99.0,'11111222,11111222,11144222' 
ADCP,ioos:station:wmo:42887:1,2013-09-02T22:00:00Z,28.1910,-88.4960,48.2,0.9,314.0,99.0,'11111222,11111222,11144222' 
ADCP,ioos:station:wmo:42887:1,2013-09-02T22:20:00Z,28.1910,-88.4960,48.2,0.8,322.0,99.0,'11111222,11111222,11144222' 
ADCP,ioos:station:wmo:42887:1,2013-09-02T22:40:00Z,28.1910,-88.4960,48.2,0.0,259.0,99.0,'11111222,11111222,11144222' 
ADCP,ioos:station:wmo:42887:1,2013-09-02T23:00:00Z,28.1910,-88.4960,48.2,0.0,310.0,99.0,'11111222,11111222,11144222' 
ADCP,ioos:station:wmo:42887:1,2013-09-02T23:20:00Z,28.1910,-88.4960,48.2,0.1,179.0,99.0,'11111222,11111222,11144222' 
ADCP,ioos:station:wmo:42887:1,2013-09-02T23:40:00Z,28.1910,-88.4960,48.2,0.0,280.0,99.0,'11111222,11111222,11144222' 
ADCP,ioos:station:wmo:42887:1,2013-09-03T00:00:00Z,28.1910,-88.4960,48.2,0.6,233.0,99.0,'11111222,11111222,11144222' 
ADCP,ioos:station:wmo:42887:1,2013-09-03T00:20:00Z,28.1910,-88.4960,48.2,0.6,234.0,99.0,'11111222,11111222,11144222' 
ADCP,ioos:station:wmo:42887:1,2013-09-03T00:40:00Z,28.1910,-88.4960,48.2,1.0,256.0,99.0,'11111222,11111222,11144222' 
ADCP,ioos:station:wmo:42887:1,2013-09-03T01:00:00Z,28.1910,-88.4960,48.2,1.7,249.0,99.0,'11111222,11111222,11144222' 
ADCP,ioos:station:wmo:42887:1,2013-09-03T01:20:00Z,28.1910,-88.4960,48.2,0.9,22.0,99.0,'11111222,11111222,11144222' 
ADCP,ioos:station:wmo:42887:1,2013-09-03T01:40:00Z,28.1910,-88.4960,48.2,1.7,227.0,99.0,'11111222,11111222,11144222' 
ADCP,ioos:station:wmo:42887:1,2013-09-03T02:00:00Z,28.1910,-88.4960,48.2,2.2,236.0,99.0,'11111222,11111222,11144222' 
ADCP,ioos:station:wmo:42887:1,2013-09-03T02:20:00Z,28.1910,-88.4960,48.2,1.9,255.0,99.0,'11111222,11111222,11144222' 
ADCP,ioos:station:wmo:42887:1,2013-09-03T02:40:00Z,28.1910,-88.4960,48.2,1.7,258.0,99.0,'11111222,11111222,11144222' 
ADCP,ioos:station:wmo:42887:1,2013-09-03T03:00:00Z,28.1910,-88.4960,48.2,1.6,276.0,99.0,'11111222,11111222,11144222' 
ADCP,ioos:station:wmo:42887:1,2013-09-03T03:20:00Z,28.1910,-88.4960,48.2,1.9,255.0,99.0,'11111222,11111222,11144222' 
ADCP,ioos:station:wmo:42887:1,2013-09-03T03:40:00Z,28.1910,-88.4960,48.2,0.9,248.0,99.0,'11111222,11111222,11144222' 
ADCP,ioos:station:wmo:42887:1,2013-09-03T04:00:00Z,28.1910,-88.4960,48.2,2.5,252.0,99.0,'11111222,11111222,11144222' 
ADCP,ioos:station:wmo:42887:1,2013-09-03T04:20:00Z,28.1910,-88.4960,48.2,2.0,251.0,99.0,'11111222,11111222,11144222' 
ADCP,ioos:station:wmo:42887:1,2013-09-03T04:40:00Z,28.1910,-88.4960,48.2,2.5,252.0,99.0,'11111222,11111222,11144222' 
ADCP,ioos:station:wmo:42887:1,2013-09-03T05:00:00Z,28.1910,-88.4960,48.2,3.3,252.0,99.0,'11111222,11111222,11144222' 
ADCP,ioos:station:wmo:42887:1,2013-09-03T05:20:00Z,28.1910,-88.4960,48.2,3.2,256.0,99.0,'11111222,11111222,11144222' 
ADCP,ioos:station:wmo:42887:1,2013-09-03T05:40:00Z,28.1910,-88.4960,48.2,3.8,256.0,99.0,'11111222,11111222,11144222' 
ADCP,ioos:station:wmo:42887:1,2013-09-03T06:00:00Z,28.1910,-88.4960,48.2,3.4,262.0,99.0,'11111222,11111222,11144222' 
ADCP,ioos:station:wmo:42887:1,2013-09-03T06:20:00Z,28.1910,-88.4960,48.2,2.7,264.0,99.0,'11111222,11111222,11144222' 
ADCP,ioos:station:wmo:42887:1,2013-09-03T06:40:00Z,28.1910,-88.4960,48.2,1.7,268.0,99.0,'11111222,11111222,11144222' 
ADCP,ioos:station:wmo:42887:1,2013-09-03T07:00:00Z,28.1910,-88.4960,48.2,2.1,259.0,99.0,'11111222,11111222,11144222' 
ADCP,ioos:station:wmo:42887:1,2013-09-03T07:20:00Z,28.1910,-88.4960,48.2,2.5,257.0,99.0,'11111222,11111222,11144222' 
ADCP,ioos:station:wmo:42887:1,2013-09-03T07:40:00Z,28.1910,-88.4960,48.2,1.8,270.0,99.0,'11111222,11111222,11144222' 
ADCP,ioos:station:wmo:42887:1,2013-09-03T08:00:00Z,28.1910,-88.4960,48.2,2.3,275.0,99.0,'11111222,11111222,11144222' 
ADCP,ioos:station:wmo:42887:1,2013-09-03T08:20:00Z,28.1910,-88.4960,48.2,3.2,262.0,99.0,'11111222,11111222,11144222' 
ADCP,ioos:station:wmo:42887:1,2013-09-03T08:40:00Z,28.1910,-88.4960,48.2,2.7,260.0,99.0,'11111222,11111222,11144222' 
ADCP,ioos:station:wmo:42887:1,2013-09-03T09:00:00Z,28.1910,-88.4960,48.2,3.2,274.0,99.0,'11111222,11111222,11144222' 
ADCP,ioos:station:wmo:42887:1,2013-09-03T09:20:00Z,28.1910,-88.4960,48.2,2.1,280.0,99.0,'11111222,11111222,11144222' 
ADCP,ioos:station:wmo:42887:1,2013-09-03T09:40:00Z,28.1910,-88.4960,48.2,0.5,295.0,99.0,'11111222,11111222,11144222' 
ADCP,ioos:station:wmo:42887:1,2013-09-03T10:00:00Z,28.1910,-88.4960,48.2,0.7,279.0,99.0,'11111222,11111222,11144222' 
ADCP,ioos:station:wmo:42887:1,2013-09-03T10:20:00Z,28.1910,-88.4960,48.2,0.6,310.0,99.0,'11111222,11111222,11144222' 
ADCP,ioos:station:wmo:42887:1,2013-09-03T10:40:00Z,28.1910,-88.4960,48.2,1.0,309.0,99.0,'11111222,11111222,11144222' 
ADCP,ioos:station:wmo:42887:1,2013-09-03T11:00:00Z,28.1910,-88.4960,48.2,1.9,298.0,99.0,'11111222,11111222,11144222' 
ADCP,ioos:station:wmo:42887:1,2013-09-03T11:20:00Z,28.1910,-88.4960,48.2,1.5,272.0,99.0,'11111222,11111222,11144222' 
ADCP,ioos:station:wmo:42887:1,2013-09-03T11:40:00Z,28.1910,-88.4960,48.2,0.9,290.0,99.0,'11111222,11111222,11144222' 
ADCP,ioos:station:wmo:42887:1,2013-09-03T12:00:00Z,28.1910,-88.4960,48.2,0.6,283.0,99.0,'11111222,11111222,11144222' 
ADCP,ioos:station:wmo:42887:1,2013-09-03T12:20:00Z,28.1910,-88.4960,48.2,2.5,316.0,99.0,'11111222,11111222,11144222' 
ADCP,ioos:station:wmo:42887:1,2013-09-03T12:40:00Z,28.1910,-88.4960,48.2,2.1,320.0,99.0,'11111222,11111222,11144222' 
ADCP,ioos:station:wmo:42887:1,2013-09-03T13:00:00Z,28.1910,-88.4960,48.2,1.3,321.0,99.0,'11111222,11111222,11144222' 
ADCP,ioos:station:wmo:42887:1,2013-09-03T13:20:00Z,28.1910,-88.4960,48.2,1.5,282.0,99.0,'11111222,11111222,11144222' 
ADCP,ioos:station:wmo:42887:1,2013-09-03T13:40:00Z,28.1910,-88.4960,48.2,0.3,61.0,99.0,'11111222,11111222,11144222' 
ADCP,ioos:station:wmo:42887:1,2013-09-03T14:00:00Z,28.1910,-88.4960,48.2,1.5,64.0,99.0,'11111222,11111222,11144222' 
ADCP,ioos:station:wmo:42887:1,2013-09-03T14:20:00Z,28.1910,-88.4960,48.2,0.6,83.0,99.0,'11111222,11111222,11144222' 
ADCP,ioos:station:wmo:42887:1,2013-09-03T14:40:00Z,28.1910,-88.4960,48.2,0.4,89.0,99.0,'11111222,11111222,11144222' 
ADCP,ioos:station:wmo:42887:1,2013-09-03T15:00:00Z,28.1910,-88.4960,48.2,0.0,266.0,99.0,'11111222,11111222,11144222' 
ADCP,ioos:station:wmo:42887:1,2013-09-03T15:20:00Z,28.1910,-88.4960,48.2,0.1,354.0,99.0,'11111222,11111222,11144222' 
ADCP,ioos:station:wmo:42887:1,2013-09-03T15:40:00Z,28.1910,-88.4960,48.2,0.1,31.0,99.0,'11111222,11111222,11144222' 
ADCP,ioos:station:wmo:42887:1,2013-09-03T16:00:00Z,28.1910,-88.4960,48.2,0.9,259.0,99.0,'11111222,11111222,11144222' 
ADCP,ioos:station:wmo:42887:1,2013-09-03T16:20:00Z,28.1910,-88.4960,48.2,0.4,260.0,99.0,'11111222,11111222,11144222' 
ADCP,ioos:station:wmo:42887:1,2013-09-03T16:40:00Z,28.1910,-88.4960,48.2,0.1,256.0,99.0,'11111222,11111222,11144222' 
ADCP,ioos:station:wmo:42887:1,2013-09-03T17:00:00Z,28.1910,-88.4960,48.2,0.3,315.0,99.0,'11111222,11111222,11144222' 
ADCP,ioos:station:wmo:42887:1,2013-09-03T17:20:00Z,28.1910,-88.4960,48.2,0.3,149.0,99.0,'11111222,11111222,11144222' 
ADCP,ioos:station:wmo:42887:1,2013-09-03T17:40:00Z,28.1910,-88.4960,48.2,1.1,78.0,99.0,'11111222,11111222,11144222' 
ADCP,ioos:station:wmo:42887:1,2013-09-03T18:00:00Z,28.1910,-88.4960,48.2,0.7,79.0,99.0,'11111222,11111222,11144222' 
ADCP,ioos:station:wmo:42887:1,2013-09-03T18:20:00Z,28.1910,-88.4960,48.2,0.8,57.0,99.0,'11111222,11111222,11144222' 
ADCP,ioos:station:wmo:42887:1,2013-09-03T18:40:00Z,28.1910,-88.4960,48.2,0.9,63.0,99.0,'11111222,11111222,11144222' 
ADCP,ioos:station:wmo:42887:1,2013-09-03T19:00:00Z,28.1910,-88.4960,48.2,0.4,65.0,99.0,'11111222,11111222,11144222' 